Weather Roundup
Issued by NWS

Home | Current Version | Previous Version | Text Only | Print | Product List | Glossary On
Versions: 1 2 3 4 5 6 7 8 9 10 11 12 13 14 15 16 17 18 19 20 21 22 23 24 25 26 27 28 29 30 31 32 33 34 35 36 37 38 39 40 41 42 43 44 45 46 47 48 49 50
000
NZUS93 KARX 281510
HRRWXR

CURRENT HOURLY OBSERVATIONS ACROSS
MUCH OF THE UPPER MISSISSIPPI VALLEY
NATIONAL WEATHER SERVICE LA CROSSE WI
1000 AM CDT WED SEP 28 2016


...SOUTHEAST MINNESOTA...


CITY           SKY/WX    TMP DP  RH WIND       PRES   REMARKS
ROCHESTER      CLOUDY    52  51  97 N12       30.07R
ROCHESTER/MAYO CLOUDY    51  52 100 NW8G17    30.07R
WINONA         CLOUDY    55  52  88 NW9       30.04R
AUSTIN         CLOUDY    54  48  82 N15G22    30.07R
ALBERT LEA     CLOUDY    54  48  82 N12       30.10R
DODGE CENTER   CLOUDY    54  48  82 N17       30.08R
PRESTON        CLOUDY    51  48  90 N14       30.05R FOG
OWATONNA       CLOUDY    55  46  71 N9        30.10R
FARIBAULT      CLOUDY    55  48  76 NW10G16   30.11R
$$

...ELSEWHERE IN MINNESOTA...


CITY           SKY/WX    TMP DP  RH WIND       PRES   REMARKS
MINNEAPOLIS    PTSUNNY   56  48  74 N13G24    30.13R
INTNL FALLS    CLOUDY    53  48  83 N6        30.25R
DULUTH         CLOUDY    55  48  77 N10G18    30.17R
RED WING       CLOUDY    57  48  72 N10G17    30.07R
REDWOOD FALLS  CLOUDY    51  48  89 NW8       30.19R
MANKATO        CLOUDY    52  47  83 N15       30.15R
WORTHINGTON    CLOUDY    46  44  93 N14       30.20R
FAIRMONT       CLOUDY    52  47  83 N15       30.16R
$$

...SOUTHWEST WISCONSIN...


CITY           SKY/WX    TMP DP  RH WIND       PRES   REMARKS
LA CROSSE      CLOUDY    57  52  83 N12       30.01R
PRAIRIE DU CHI CLOUDY    55  48  76 NW13      30.00R
BOSCOBEL       CLOUDY    57  51  80 N10       29.99R
LONE ROCK      CLOUDY    54  50  86 N7        29.98R
PLATTEVILLE    CLOUDY    53  52  95 N13       29.97R
FORT MC COY    CLOUDY    53  51  92 N5        30.01R
CAMP DOUGLAS   PTSUNNY   55  52  88 N12       29.98R
MAUSTON-NEW LI CLOUDY    55  52  90 NW7       29.97R
VIROQUA        CLOUDY    52  52 100 N9G17     30.00R
WIS DELLS      CLOUDY    53  50  89 N6        29.96R
$$

...ELSEWHERE IN WISCONSIN...


CITY           SKY/WX    TMP DP  RH WIND       PRES   REMARKS
MILWAUKEE      PTSUNNY   55  49  80 N10       29.91R
MADISON        CLOUDY    53  50  89 N8        29.94R
GREEN BAY      LGT RAIN  55  54  96 N14G23    29.95R
EAU CLAIRE     CLOUDY    56  52  86 N13       30.05R
BLACK RVR FLS  CLOUDY    56  53  91 N9        30.01R
MEDFORD        CLOUDY    54  54 100 N17G23    30.01R
WAUSAU         CLOUDY    56  49  77 NE10      29.99R
WIS RAPIDS     PTSUNNY   56  51  84 N10       29.99R
MARSHFIELD     CLOUDY    56  49  77 N8        29.99R
RICE LAKE      CLOUDY    55  50  85 N10       30.10R
$$

...NORTHEAST IOWA...


CITY           SKY/WX    TMP DP  RH WIND       PRES   REMARKS
WATERLOO       CLOUDY    55  47  74 N21       30.03R
DUBUQUE        CLOUDY    52  49  89 N14G22    29.97R
DECORAH        PTSUNNY   52  52 100 N9G15     30.01R
MASON CITY       N/A     54  47  77 N15G25    30.10R
CHARLES CITY   CLOUDY    54  50  87 N15       30.06R
OELWEIN        CLOUDY    54  48  82 N15       30.03R
$$

...ELSEWHERE IN IOWA...


CITY           SKY/WX    TMP DP  RH WIND       PRES   REMARKS
DES MOINES     CLOUDY    55  45  68 N13G18    30.08R
IOWA CITY      CLOUDY    54  46  74 N18G24    30.02R
FORT DODGE     CLOUDY    52  43  71 N10G17    30.14R
MARSHALLTOWN   MOSUNNY   57  48  72 N21       30.04R
CEDAR RAPIDS   CLOUDY    53  48  83 NW15      30.00R
$$

...NORTHERN ILLINOIS...


CITY           SKY/WX    TMP DP  RH WIND       PRES   REMARKS
CHICAGO-OHARE  PTSUNNY   56  46  69 N13       29.88R
CHICAGO-MIDWAY PTSUNNY   56  46  69 N12       29.87R
MOLINE         CLOUDY    56  46  69 NW8       29.96R
ROCKFORD       CLOUDY    53  49  86 N14       29.95R
PEORIA         CLOUDY    54  45  71 N12G20    29.93R
$$

NOTE: "FAIR" INDICATES FEW OR NO CLOUDS BELOW 12,000 FEET WITH NO
SIGNIFICANT WEATHER AND/OR OBSTRUCTIONS TO VISIBILITY. WIND
SPEEDS ARE IN MILES-PER-HOUR.




USA.gov is the U.S. government's official web portal to all federal, state and local government web resources and services.